Crookston, MN

4:49 AM CDT on August 26, 2016 (GMT -0500)
Crookston Municipal-Kirkwood

Weather History for KCKN - December, 2013

Change the Weather History Date:

Wednesday, December 4, 2013

  Actual Average Record
Temperature  
Mean Temperature 16 °F -  
Max Temperature 23 °F 25 °F 39 °F (2004)
Min Temperature 8 °F 11 °F -7 °F (2002)
Degree Days  
Heating Degree Days 50    
Moisture  
Dew Point 13 °F    
Average Humidity 89    
Maximum Humidity 93    
Minimum Humidity 85    
Precipitation  
Precipitation 0.00 in - - ()
Sea Level Pressure  
Sea Level Pressure 29.80 in    
Wind  
Wind Speed 15 mph (NNE)    
Max Wind Speed 29 mph    
Max Gust Speed 33 mph    
Visibility 2 miles    
Events Snow    
Averages and records for this station are not official NWS values.
T = Trace of Precipitation, MM = Missing Value Source: NWS Daily Summary

Daily Weather History Graph

Daily Weather History Graph

Search for Another Location

Airport or City:

Trip Planner

Search our weather history database for the weather conditions in past years. The results will help you decide how hot, cold, wet, or windy it might be!

Date:

Astronomy

Dec. 04, 2013 Rise Set
Actual Time 7:58 AM CST 4:34 PM CST
Civil Twilight 7:22 AM CST 5:10 PM CST
Nautical Twilight 6:43 AM CST 5:49 PM CST
Astronomical Twilight 6:06 AM CST 6:26 PM CST
Moon 9:24 AM CST (12/4) 6:50 PM CST (12/4)
Length of Visible Light 9h 47m
Length of Day
8h 36m
Waxing Crescent, 4% of the Moon is Illuminated
Dec 4
Waxing Crescent
Dec 9
First Quarter
Dec 17
Full
Dec 25
Last Quarter
Jan 1
New

Hourly Weather History & Observations

Time (CST) Temp. Windchill Dew Point Humidity Pressure Visibility Wind Dir Wind Speed Gust Speed Precip Events Conditions
12:15 AM 23.0 °F 10.6 °F 21.2 °F 93% 29.89 in 2.5 mi East 13.8 mph 19.6 mph N/A Snow Light Snow
12:34 AM 23.0 °F 10.6 °F 21.2 °F 93% 29.91 in 7.0 mi East 13.8 mph 19.6 mph N/A Snow Light Snow
12:54 AM 23.0 °F 10.6 °F 19.4 °F 86% 29.90 in 7.0 mi East 13.8 mph - N/A Snow Light Snow
1:14 AM 23.0 °F 11.1 °F 19.4 °F 86% 29.90 in 10.0 mi East 12.7 mph - N/A Snow Light Snow
1:34 AM 23.0 °F 11.7 °F 19.4 °F 86% 29.90 in 10.0 mi ENE 11.5 mph - N/A Snow Light Snow
1:55 AM 21.2 °F 8.9 °F 17.6 °F 86% 29.91 in 10.0 mi East 12.7 mph - N/A Snow Light Snow
2:14 AM 21.2 °F 8.9 °F 17.6 °F 86% 29.91 in 7.0 mi East 12.7 mph - N/A Snow Light Snow
2:34 AM 21.2 °F 9.5 °F 17.6 °F 86% 29.91 in 3.0 mi East 11.5 mph 18.4 mph N/A Snow Light Snow
2:55 AM 21.2 °F 10.9 °F 17.6 °F 86% 29.91 in 2.5 mi ENE 9.2 mph 18.4 mph N/A Snow Light Snow
3:14 AM 21.2 °F 10.1 °F 17.6 °F 86% 29.91 in 3.0 mi ENE 10.4 mph - N/A Snow Light Snow
3:34 AM 19.4 °F 7.9 °F 17.6 °F 93% 29.90 in 2.5 mi ENE 10.4 mph - N/A Snow Light Snow
3:55 AM 19.4 °F 8.6 °F 17.6 °F 93% 29.90 in 3.0 mi ENE 9.2 mph - N/A Snow Light Snow
4:14 AM 19.4 °F 7.9 °F 17.6 °F 93% 29.91 in 3.0 mi ENE 10.4 mph - N/A Snow Light Snow
4:34 AM 19.4 °F 7.9 °F 17.6 °F 93% 29.91 in 2.0 mi ENE 10.4 mph - N/A Snow Light Snow
4:55 AM 19.4 °F 7.9 °F 15.8 °F 86% 29.89 in 2.0 mi ENE 10.4 mph 16.1 mph N/A Snow Light Snow
5:14 AM 19.4 °F 6.6 °F 15.8 °F 86% 29.88 in 2.0 mi ENE 12.7 mph 17.3 mph N/A Snow Light Snow
5:34 AM 17.6 °F 4.3 °F 15.8 °F 93% 29.88 in 2.0 mi ENE 12.7 mph 17.3 mph N/A Snow Light Snow
5:55 AM 17.6 °F 4.3 °F 15.8 °F 93% 29.87 in 1.8 mi East 12.7 mph 20.7 mph N/A Snow Light Snow
6:14 AM 17.6 °F 3.7 °F 15.8 °F 93% 29.87 in 2.0 mi East 13.8 mph - N/A Snow Light Snow
6:34 AM 17.6 °F 4.3 °F 15.8 °F 93% 29.87 in 2.5 mi ENE 12.7 mph 18.4 mph N/A Snow Light Snow
6:55 AM 17.6 °F 5.0 °F 15.8 °F 93% 29.88 in 2.0 mi East 11.5 mph 18.4 mph N/A Snow Light Snow
7:14 AM 17.6 °F 3.7 °F 15.8 °F 93% 29.85 in 1.5 mi ENE 13.8 mph - N/A Snow Light Snow
7:34 AM 17.6 °F 3.2 °F 15.8 °F 93% 29.86 in 1.8 mi ENE 15.0 mph 18.4 mph N/A Snow Light Snow
7:55 AM 17.6 °F 5.7 °F 15.8 °F 93% 29.85 in 1.5 mi ENE 10.4 mph 18.4 mph N/A Snow Light Snow
8:14 AM 17.6 °F 6.4 °F 15.8 °F 93% 29.85 in 1.2 mi ENE 9.2 mph - N/A Snow Light Snow
8:34 AM 17.6 °F 6.4 °F 15.8 °F 93% 29.86 in 1.5 mi NE 9.2 mph - N/A Snow Light Snow
8:55 AM 17.6 °F 5.7 °F 15.8 °F 93% 29.86 in 1.0 mi NE 10.4 mph - N/A Snow Light Snow
9:14 AM 17.6 °F 5.7 °F 14.0 °F 86% 29.84 in 0.5 mi NE 10.4 mph - N/A Snow Snow
9:34 AM 17.6 °F 5.7 °F 15.8 °F 93% 29.85 in 0.2 mi NE 10.4 mph - N/A Snow Snow
9:55 AM 17.6 °F 5.0 °F 15.8 °F 93% 29.85 in 0.2 mi NNE 11.5 mph - N/A Snow Snow
10:14 AM 17.6 °F 6.4 °F 15.8 °F 93% 29.84 in 0.5 mi NNE 9.2 mph - N/A Snow Snow
10:34 AM 17.6 °F 6.4 °F 14.0 °F 86% 29.84 in 0.8 mi NNE 9.2 mph - N/A Snow Light Snow
10:55 AM 17.6 °F 5.0 °F 14.0 °F 86% 29.81 in 0.8 mi NE 11.5 mph - N/A Snow Light Snow
11:14 AM 17.6 °F 6.4 °F 14.0 °F 86% 29.83 in 0.8 mi NNE 9.2 mph - N/A Snow Light Snow
11:34 AM 17.6 °F 7.3 °F 15.8 °F 93% 29.82 in 1.0 mi NNE 8.1 mph - N/A Snow Light Snow
11:55 AM 17.6 °F 4.3 °F 14.0 °F 86% 29.79 in 0.8 mi North 12.7 mph - N/A Snow Light Snow
12:14 PM 15.8 °F 0.9 °F 12.2 °F 86% 29.78 in 0.8 mi North 15.0 mph - N/A Snow Light Snow
12:34 PM 15.8 °F 0.9 °F 12.2 °F 86% 29.77 in 1.0 mi NNE 15.0 mph - N/A Snow Light Snow
12:55 PM 15.8 °F 0.9 °F 12.2 °F 86% 29.76 in 1.0 mi NNE 15.0 mph - N/A Snow Light Snow
1:14 PM 15.8 °F 0.3 °F 12.2 °F 86% 29.76 in 0.8 mi North 16.1 mph - N/A Snow Light Snow
1:34 PM 15.8 °F 1.4 °F 12.2 °F 86% 29.75 in 0.8 mi North 13.8 mph - N/A Snow Light Snow
1:55 PM 15.8 °F -0.2 °F 12.2 °F 86% 29.73 in 0.5 mi North 17.3 mph - N/A Snow Light Snow
2:14 PM 15.8 °F -0.6 °F 12.2 °F 86% 29.73 in 0.5 mi North 18.4 mph - N/A Snow Snow
2:35 PM 15.8 °F -0.6 °F 12.2 °F 86% 29.72 in 0.8 mi North 18.4 mph - N/A Snow Light Snow
2:55 PM 15.8 °F -1.1 °F 12.2 °F 86% 29.72 in 1.0 mi North 19.6 mph 24.2 mph N/A Snow Light Snow
3:14 PM 15.8 °F -0.6 °F 12.2 °F 86% 29.73 in 0.5 mi North 18.4 mph 24.2 mph N/A Snow Snow
3:35 PM 15.8 °F -1.9 °F 12.2 °F 86% 29.73 in 0.8 mi North 21.9 mph - N/A Snow Light Snow
3:55 PM 15.8 °F -1.9 °F 12.2 °F 86% 29.73 in 0.8 mi North 21.9 mph - N/A Snow Light Snow
4:14 PM 14.0 °F -4.7 °F 12.2 °F 93% 29.73 in 1.5 mi North 23.0 mph 27.6 mph N/A Snow Light Snow
4:35 PM 14.0 °F -4.7 °F 12.2 °F 93% 29.73 in 0.5 mi North 23.0 mph 27.6 mph N/A Snow Light Snow
4:54 PM 14.0 °F -4.7 °F 10.4 °F 86% 29.72 in 1.0 mi North 23.0 mph 27.6 mph N/A Snow Light Snow
5:14 PM 12.2 °F -7.5 °F 10.4 °F 92% 29.70 in 0.8 mi North 24.2 mph - N/A Snow Snow
5:35 PM 12.2 °F -6.7 °F 10.4 °F 92% 29.71 in 0.8 mi North 21.9 mph 28.8 mph N/A Snow Snow
5:54 PM 12.2 °F -7.9 °F 10.4 °F 92% 29.71 in 1.0 mi North 25.3 mph 28.8 mph N/A Snow Light Snow
6:14 PM 12.2 °F -7.9 °F 10.4 °F 92% 29.70 in 1.0 mi North 25.3 mph 29.9 mph N/A Snow Light Snow
6:35 PM 12.2 °F -7.5 °F 10.4 °F 92% 29.71 in 0.8 mi North 24.2 mph 31.1 mph N/A Snow Snow
6:54 PM 12.2 °F -7.5 °F 10.4 °F 92% 29.71 in 0.8 mi North 24.2 mph - N/A Snow Light Snow
7:15 PM 12.2 °F -7.9 °F 10.4 °F 92% 29.70 in 1.0 mi North 25.3 mph 32.2 mph N/A Snow Light Snow
7:34 PM 12.2 °F -7.9 °F 10.4 °F 92% 29.71 in 1.0 mi North 25.3 mph - N/A Snow Light Snow
7:54 PM 12.2 °F -8.2 °F 8.6 °F 85% 29.71 in 1.0 mi North 26.5 mph 32.2 mph N/A Snow Light Snow
8:15 PM 12.2 °F -8.6 °F 8.6 °F 85% 29.71 in 0.8 mi North 27.6 mph - N/A Snow Light Snow
8:34 PM 12.2 °F -8.6 °F 8.6 °F 85% 29.71 in 1.0 mi North 27.6 mph 33.4 mph N/A Snow Light Snow
8:54 PM 10.4 °F -10.3 °F 8.6 °F 92% 29.71 in 1.0 mi North 25.3 mph - N/A Snow Light Snow
9:15 PM 10.4 °F -11.4 °F 8.6 °F 92% 29.71 in 1.0 mi North 28.8 mph 33.4 mph N/A Snow Light Snow
9:34 PM 10.4 °F -10.3 °F 8.6 °F 92% 29.71 in 1.0 mi North 25.3 mph 33.4 mph N/A Snow Light Snow
9:54 PM 10.4 °F -10.3 °F 8.6 °F 92% 29.72 in 1.2 mi NNW 25.3 mph - N/A Snow Light Snow
10:15 PM 10.4 °F -9.1 °F 8.6 °F 92% 29.72 in 1.0 mi NNW 21.9 mph 31.1 mph N/A Snow Light Snow
10:34 PM 10.4 °F -9.1 °F 6.8 °F 85% 29.73 in 1.0 mi NNW 21.9 mph 28.8 mph N/A Snow Light Snow
10:54 PM 8.6 °F -11.9 °F 6.8 °F 92% 29.74 in 1.0 mi NNW 23.0 mph 29.9 mph N/A Snow Light Snow
11:15 PM 8.6 °F -12.3 °F 5.0 °F 85% 29.74 in 1.0 mi NNW 24.2 mph 31.1 mph N/A Snow Light Snow
11:34 PM 8.6 °F -11.9 °F 5.0 °F 85% 29.75 in 0.8 mi NNW 23.0 mph - N/A Snow Light Snow
11:54 PM 8.6 °F -11.9 °F 5.0 °F 85% 29.75 in 0.8 mi NNW 23.0 mph 28.8 mph N/A Snow Light Snow